[[{"header":{"parameterUnit":"m.s-1","parameterCategory":1,"la1":30.2991,"la2":30.254,"lo1":-89.0895,"lo2":-89.0444,"dy":0.0017,"dx":0.0017,"nx":28,"ny":28,"refTime":"2025-09-06T09:00:00:Z","depth":0,"parameterNumber":2,"parameterNumberName":"U-component_of_WINDS"},"data":[0,0,0,0,0,0,0,0,0,0,0,0,0,0,0,0,0,0,0,0,0,0,0,0,0,0,0,0,0,0,0,0,0,0,0,0,0,0,0,0,0,0,0,0,0,0,0,0,0,0,0,0,0,0,0,0,0,0,-0.7624,-0.7624,0,-0.7679,-0.768,-0.768,-0.7653,-0.7652,-0.7651,-0.7649,-0.7706,-0.7709,-0.7712,0,0,0,0,0,0,0,0,0,0,0,0,0,-0.7494,-0.7496,-0.7624,-0.7624,-0.7625,-0.7679,-0.768,-0.768,-0.7654,-0.7652,-0.765,-0.7649,-0.7705,-0.7709,-0.7712,0,0,0,0,0,0,0,0,0,0,0,0,0,-0.755,-0.7497,-0.7624,-0.7618,-0.7618,-0.7679,-0.768,-0.7681,-0.7654,-0.7652,-0.765,-0.7648,-0.7704,-0.7708,-0.7713,-0.7782,0,0,-0.7726,-0.7727,0,0,0,0,0,0,0,0,-0.7547,-0.7555,-0.7618,-0.7619,-0.7619,-0.7657,-0.7655,-0.7715,-0.7655,-0.7641,-0.7649,-0.7647,-0.7692,-0.7697,-0.7712,-0.7784,-0.7787,-0.7726,-0.7729,-0.773,-0.7732,0,0,0,0,0,0,0,-0.7543,-0.7552,-0.7646,-0.7619,-0.762,-0.7613,-0.7618,-0.7666,-0.7677,-0.7642,-0.764,-0.7647,-0.7691,-0.7708,-0.7713,-0.7788,-0.7726,-0.773,-0.7732,-0.7734,-0.7918,-0.7921,0,0,0,0,0,0,-0.7539,-0.7549,-0.7644,-0.7647,-0.7577,-0.7617,-0.7623,-0.7647,-0.7677,-0.7679,-0.7648,-0.7645,-0.7702,-0.7708,-0.7715,-0.7798,-0.773,-0.7734,-0.7737,-0.7916,-0.7919,-0.7921,0,0,0,0,0,0,-0.7537,-0.7548,-0.7642,-0.7598,-0.7609,-0.7621,-0.7648,-0.7649,-0.7666,-0.7682,-0.7684,-0.7663,-0.77,-0.7709,-0.7765,-0.7799,-0.7736,-0.774,-0.7913,-0.7917,-0.792,-0.7964,0,0,0,0,0,0,-0.7533,-0.7547,-0.7574,-0.7598,-0.7611,-0.7691,-0.7651,-0.7652,-0.7673,-0.7669,-0.7696,-0.7699,-0.7699,-0.7759,-0.7769,-0.7804,-0.7743,-0.791,-0.7915,-0.7919,-0.796,-0.7969,-0.7976,0,0,0,0,0,-0.7528,-0.7584,-0.7576,-0.7587,-0.7645,-0.7693,-0.7701,-0.77,-0.7676,-0.7703,-0.7713,-0.7698,-0.7793,-0.7765,-0.7776,-0.7813,-0.7908,-0.7914,-0.7919,-0.7956,-0.7967,-0.7976,0,0,0,0,0,0,-0.7564,-0.7588,-0.7578,-0.7644,-0.7667,-0.7689,-0.7723,-0.7712,-0.7742,-0.7738,-0.7735,-0.7741,-0.78,-0.7811,-0.7779,-0.7881,-0.7847,-0.7855,-0.7871,-0.7882,-0.789,-0.7887,-0.7747,0,0,0,0,0,-0.758,-0.7617,-0.7635,-0.7691,-0.7703,-0.7711,-0.7732,-0.7729,-0.7753,-0.7763,-0.7777,-0.7801,-0.7836,-0.7859,-0.7892,-0.796,-0.7966,-0.7991,-0.7999,-0.8006,-0.8013,-0.8049,-0.8061,-0.7939,-0.7939,-0.7938,0,0,-0.7612,-0.763,-0.7653,-0.7699,-0.7716,-0.7755,-0.772,-0.7762,-0.779,-0.7769,-0.7823,-0.7834,-0.786,-0.7922,-0.795,-0.7934,-0.8048,-0.8013,-0.8018,-0.8022,-0.8056,-0.8068,-0.8078,-0.7942,-0.7942,-0.7941,0,0,-0.7692,-0.7708,-0.7757,-0.7775,-0.7801,-0.7806,-0.7817,-0.7841,-0.7847,-0.7901,-0.7886,-0.7919,-0.798,-0.7999,-0.8016,-0.81,-0.8088,-0.8111,-0.8155,-0.8191,-0.82,-0.8209,-0.8239,-0.825,-0.8118,-0.8118,-0.8118,0,-0.7729,-0.7787,-0.7783,-0.7827,-0.7847,-0.7828,-0.7877,-0.7894,-0.7931,-0.7945,-0.7926,-0.8001,-0.8017,-0.8083,-0.8103,-0.8118,-0.8131,-0.8109,-0.8199,-0.8208,-0.8216,-0.8244,-0.8256,-0.8121,-0.812,-0.812,-0.812,0,-0.7831,-0.7871,-0.7907,-0.7942,-0.7966,-0.8012,-0.8015,-0.8039,-0.8034,-0.804,-0.8094,-0.8113,-0.8149,-0.8164,-0.8159,-0.8229,-0.8218,-0.8199,-0.8166,-0.823,-0.8257,-0.8268,-0.8125,-0.8124,-0.8123,-0.8122,0,0,-0.7937,-0.7968,-0.7982,-0.7997,-0.8024,-0.8055,-0.8099,-0.8134,-0.8155,-0.818,-0.8217,-0.8268,-0.825,-0.827,-0.8266,-0.8297,-0.8362,-0.8274,-0.8274,-0.829,-0.844,-0.8456,-0.8469,-0.8353,-0.8355,-0.8357,-0.8438,0,-0.8019,-0.8097,-0.8094,-0.8167,-0.8204,-0.8185,-0.8224,-0.8244,-0.825,-0.8282,-0.8288,-0.8325,-0.8298,-0.831,-0.8339,-0.8348,-0.8393,-0.8342,-0.8388,-0.839,-0.8384,-0.8483,-0.8499,-0.8576,-0.8449,-0.8451,-0.8452,0,-0.8126,-0.8154,-0.823,-0.825,-0.8266,-0.83,-0.8332,-0.8362,-0.8384,-0.8386,-0.8408,-0.8399,-0.8443,-0.8407,-0.8467,-0.8433,-0.8451,-0.8458,-0.8461,-0.8466,-0.8426,-0.8492,-0.86,-0.8612,-0.8469,-0.8467,-0.8466,0,-0.8196,-0.8253,-0.8305,-0.8319,-0.8344,-0.8369,-0.838,-0.84,-0.8421,-0.8448,-0.8461,-0.8493,-0.8511,-0.8535,-0.8535,-0.8508,-0.8596,-0.856,-0.86,-0.86,-0.8621,-0.862,-0.8735,-0.863,-0.863,-0.863,-0.863,0,-0.8289,-0.8336,-0.8337,-0.837,-0.8422,-0.8418,-0.847,-0.8478,-0.8496,-0.853,-0.8515,-0.8547,-0.8544,-0.8576,-0.8575,-0.8625,-0.8633,-0.8636,-0.8636,-0.8639,-0.8638,-0.8652,-0.8647,-0.8633,-0.8632,-0.8632,-0.8631,0,-0.8377,-0.838,-0.8436,-0.8455,-0.846,-0.8498,-0.8514,-0.8544,-0.8548,-0.8591,-0.8601,-0.8607,-0.8644,-0.8645,-0.8687,-0.8687,-0.8748,-0.8741,-0.8741,-0.874,-0.878,-0.8777,-0.8909,-0.8926,-0.8809,-0.881,-0.8811,0,-0.8437,-0.8473,-0.8495,-0.8516,-0.8529,-0.8564,-0.8585,-0.8581,-0.8603,-0.863,-0.8657,-0.8692,-0.872,-0.8779,-0.8788,-0.8819,-0.8814,-0.8858,-0.8819,-0.882,-0.8815,-0.8814,-0.8817,-0.8866,-0.8867,-0.8868,-0.8869,0,-0.8543,-0.8542,-0.8573,-0.8604,-0.8629,-0.8653,-0.8676,-0.8694,-0.8692,-0.8718,-0.8755,-0.8777,-0.8819,-0.8854,-0.8884,-0.8895,-0.8882,-0.8881,-0.8892,-0.8896,-0.8894,-0.8896,-0.8763,-0.8878,-0.8878,-0.8877,-0.8876,-0.8876,-0.862,-0.8651,-0.8671,-0.8705,-0.8721,-0.8742,-0.8772,-0.8779,-0.881,-0.8844,-0.8839,-0.888,-0.89,-0.8939,-0.8952,-0.8984,-0.8969,-0.8985,-0.8989,-0.8994,-0.8998,-0.8888,-0.899,-0.8989,-0.8989,-0.8989,-0.8989,0,-0.8725,-0.8737,-0.8768,-0.88,-0.8827,-0.8811,-0.8834,-0.8858,-0.8894,-0.8914,-0.8941,-0.8983,-0.9016,-0.9026,-0.9058,-0.9081,-0.9076,-0.909,-0.9089,-0.9092,-0.901,-0.8997,-0.9094,-0.9094,-0.9094,-0.9094,-0.9093,-0.9093,-0.8784,-0.8835,-0.8836,-0.8895,-0.8906,-0.8946,-0.8961,-0.898,-0.8995,-0.9043,-0.907,-0.9076,-0.9091,-0.9124,-0.9153,-0.9155,-0.9168,-0.9185,-0.9184,-0.9108,-0.9097,-0.9087,-0.9076,-0.9187,-0.9187,-0.9264,-0.9265,-0.9265]},{"header":{"parameterUnit":"m.s-1","parameterCategory":1,"la1":30.2991,"la2":30.254,"lo1":-89.0895,"lo2":-89.0444,"dy":0.0017,"dx":0.0017,"nx":28,"ny":28,"refTime":"2025-09-06T09:00:00:Z","depth":0,"parameterNumber":3,"parameterNumberName":"V-component_of_WINDS"},"data":[0,0,0,0,0,0,0,0,0,0,0,0,0,0,0,0,0,0,0,0,0,0,0,0,0,0,0,0,0,0,0,0,0,0,0,0,0,0,0,0,0,0,0,0,0,0,0,0,0,0,0,0,0,0,0,0,0,0,-4.364,-4.3641,0,-4.3748,-4.3749,-4.375,-4.3736,-4.3734,-4.3733,-4.3731,-4.3836,-4.3841,-4.3845,0,0,0,0,0,0,0,0,0,0,0,0,0,-4.3418,-4.3422,-4.364,-4.3641,-4.3643,-4.3747,-4.3749,-4.375,-4.3736,-4.3734,-4.3732,-4.373,-4.3835,-4.384,-4.3845,0,0,0,0,0,0,0,0,0,0,0,0,0,-4.3519,-4.3423,-4.364,-4.3648,-4.365,-4.3747,-4.3749,-4.3751,-4.3737,-4.3734,-4.3732,-4.3729,-4.3833,-4.384,-4.3846,-4.394,0,0,-4.3866,-4.3869,0,0,0,0,0,0,0,0,-4.3513,-4.3527,-4.3646,-4.3648,-4.365,-4.3726,-4.3709,-4.3814,-4.3738,-4.3704,-4.3731,-4.3728,-4.3801,-4.381,-4.3836,-4.3944,-4.3949,-4.3867,-4.3871,-4.3874,-4.3876,0,0,0,0,0,0,0,-4.3506,-4.3522,-4.3682,-4.3648,-4.365,-4.3645,-4.3657,-4.3729,-4.3766,-4.3707,-4.3706,-4.3719,-4.3802,-4.383,-4.3839,-4.3951,-4.3867,-4.3873,-4.3877,-4.3879,-4.414,-4.4143,0,0,0,0,0,0,-4.3497,-4.3516,-4.3679,-4.3686,-4.3574,-4.3652,-4.3664,-4.3704,-4.3765,-4.3772,-4.3721,-4.3718,-4.382,-4.3831,-4.3842,-4.3955,-4.3874,-4.388,-4.3884,-4.4137,-4.4141,-4.4144,0,0,0,0,0,0,-4.3493,-4.3512,-4.3675,-4.3601,-4.3621,-4.3658,-4.3703,-4.3708,-4.3736,-4.3776,-4.3782,-4.3743,-4.3818,-4.3833,-4.3916,-4.3959,-4.3883,-4.3889,-4.4134,-4.4138,-4.4143,-4.4182,0,0,0,0,0,0,-4.3486,-4.351,-4.3547,-4.3602,-4.3625,-4.3748,-4.3706,-4.3712,-4.3748,-4.3745,-4.3798,-4.3805,-4.3817,-4.3906,-4.3922,-4.3967,-4.3894,-4.413,-4.4136,-4.4141,-4.4177,-4.4188,-4.4196,0,0,0,0,0,-4.3479,-4.3553,-4.3549,-4.3569,-4.3673,-4.375,-4.3764,-4.3778,-4.3751,-4.3788,-4.3814,-4.3803,-4.3952,-4.3915,-4.3933,-4.398,-4.4127,-4.4134,-4.4141,-4.4173,-4.4186,-4.4196,0,0,0,0,0,0,-4.3501,-4.3561,-4.3557,-4.3652,-4.3696,-4.3748,-4.3795,-4.3791,-4.3842,-4.3837,-4.3851,-4.3863,-4.3947,-4.3972,-4.3929,-4.4073,-4.4036,-4.4046,-4.4054,-4.4066,-4.4076,-4.4067,-4.39,0,0,0,0,0,-4.3518,-4.3577,-4.3625,-4.3704,-4.3727,-4.3757,-4.3792,-4.3799,-4.3845,-4.3863,-4.3895,-4.3939,-4.3995,-4.4032,-4.4086,-4.4181,-4.4192,-4.4222,-4.4232,-4.4239,-4.4248,-4.4299,-4.4313,-4.4166,-4.4166,-4.4166,0,0,-4.3551,-4.3591,-4.3628,-4.371,-4.3745,-4.3806,-4.3773,-4.3838,-4.3882,-4.3873,-4.3953,-4.3978,-4.4028,-4.4117,-4.4158,-4.414,-4.4291,-4.4248,-4.4254,-4.4258,-4.4308,-4.4321,-4.4334,-4.417,-4.417,-4.4169,0,0,-4.3643,-4.368,-4.375,-4.3787,-4.3841,-4.3861,-4.3878,-4.393,-4.3947,-4.4029,-4.4022,-4.4074,-4.4172,-4.4207,-4.4238,-4.4344,-4.4336,-4.4362,-4.4411,-4.4461,-4.4472,-4.4483,-4.452,-4.4533,-4.437,-4.437,-4.437,0,-4.3678,-4.377,-4.3786,-4.3852,-4.3888,-4.3884,-4.3954,-4.3988,-4.4057,-4.4081,-4.4061,-4.4183,-4.4216,-4.4313,-4.4339,-4.4365,-4.4383,-4.4355,-4.447,-4.448,-4.449,-4.4525,-4.454,-4.4373,-4.4373,-4.4372,-4.4372,0,-4.381,-4.3873,-4.3923,-4.3992,-4.4033,-4.4101,-4.4126,-4.4166,-4.4169,-4.4191,-4.4273,-4.4313,-4.4375,-4.4399,-4.4403,-4.4497,-4.4484,-4.4467,-4.4429,-4.4506,-4.454,-4.4554,-4.4377,-4.4376,-4.4375,-4.4374,0,0,-4.3918,-4.3996,-4.4013,-4.4044,-4.4105,-4.4153,-4.422,-4.4283,-4.4317,-4.4364,-4.442,-4.4503,-4.4487,-4.4522,-4.453,-4.4574,-4.4655,-4.4551,-4.4552,-4.4568,-4.476,-4.4772,-4.4788,-4.465,-4.4653,-4.4655,-4.4755,0,-4.4016,-4.4136,-4.4153,-4.4259,-4.4317,-4.4314,-4.4373,-4.4415,-4.4437,-4.4489,-4.4512,-4.457,-4.4546,-4.4567,-4.461,-4.4636,-4.4693,-4.4629,-4.47,-4.4703,-4.4687,-4.4805,-4.4818,-4.4912,-4.4769,-4.4771,-4.4773,0,-4.4146,-4.4199,-4.4311,-4.4363,-4.4389,-4.4441,-4.4499,-4.455,-4.4597,-4.461,-4.4649,-4.4652,-4.472,-4.468,-4.4773,-4.4729,-4.4759,-4.4776,-4.478,-4.4787,-4.4742,-4.4814,-4.4942,-4.4955,-4.4794,-4.4792,-4.479,0,-4.4213,-4.4312,-4.4392,-4.4419,-4.4482,-4.4519,-4.4547,-4.4592,-4.4628,-4.4679,-4.4703,-4.476,-4.4791,-4.4835,-4.4852,-4.4822,-4.4944,-4.4906,-4.4955,-4.4955,-4.498,-4.4978,-4.5113,-4.5001,-4.5001,-4.5001,-4.5,0,-4.432,-4.4388,-4.4423,-4.4473,-4.4549,-4.4567,-4.4641,-4.4667,-4.4708,-4.4761,-4.4761,-4.4811,-4.4831,-4.4883,-4.4897,-4.4972,-4.4986,-4.4997,-4.4999,-4.4996,-4.4995,-4.5016,-4.5009,-4.5004,-4.5003,-4.5003,-4.5002,0,-4.4407,-4.4434,-4.4521,-4.4574,-4.4589,-4.4643,-4.4688,-4.4734,-4.4756,-4.4823,-4.484,-4.4873,-4.4935,-4.4957,-4.5031,-4.504,-4.5126,-4.5124,-4.5111,-4.5111,-4.5159,-4.5154,-4.5312,-4.5333,-4.5207,-4.5208,-4.5209,0,-4.4473,-4.4526,-4.4586,-4.4622,-4.4652,-4.471,-4.4748,-4.4767,-4.4806,-4.4865,-4.4904,-4.4966,-4.5016,-4.5114,-4.5144,-4.5201,-4.5199,-4.5251,-4.5208,-4.5203,-4.5199,-4.5195,-4.52,-4.5258,-4.526,-4.5261,-4.5262,0,-4.4587,-4.4598,-4.4653,-4.4713,-4.4759,-4.4807,-4.4853,-4.4882,-4.4908,-4.4952,-4.5016,-4.5055,-4.5132,-4.5193,-4.5251,-4.5277,-4.5274,-4.5275,-4.5289,-4.5286,-4.5276,-4.5282,-4.5132,-4.5271,-4.527,-4.5269,-4.5269,-4.5269,-4.4665,-4.4712,-4.4762,-4.4823,-4.4861,-4.4904,-4.4951,-4.4979,-4.5033,-4.5098,-4.5106,-4.5174,-4.522,-4.5298,-4.5328,-4.5381,-4.5366,-4.5387,-4.5392,-4.5397,-4.54,-4.5269,-4.5391,-4.5391,-4.5391,-4.5391,-4.539,0,-4.4779,-4.4811,-4.4867,-4.4933,-4.4981,-4.4975,-4.5026,-4.5066,-4.5127,-4.5171,-4.5221,-4.5294,-4.5354,-4.5389,-4.5447,-4.5483,-4.5483,-4.5498,-4.5495,-4.5501,-4.541,-4.5391,-4.5497,-4.5497,-4.5497,-4.5497,-4.5497,-4.5497,-4.4843,-4.4923,-4.4939,-4.5036,-4.5067,-4.5136,-4.5165,-4.5205,-4.524,-4.5322,-4.5372,-4.5395,-4.5435,-4.5497,-4.5551,-4.5559,-4.5581,-4.5597,-4.5604,-4.5518,-4.5507,-4.5497,-4.5479,-4.5602,-4.5602,-4.569,-4.5691,-4.5692]}]]